This is the latest recevied weather packets stored in our database for station/object N9OJR. If no packets are shown the sender has not sent any weather packets the latest 10 day(s).
| Time | Temp. | Humidity | Pressure | Rain* | Wind** | Luminosity | Snow |
|---|---|---|---|---|---|---|---|
| 1777819811 | 11.11° C | 54% | 1013.7 hPa | 0 mm | - | 770 W/m² | - |
| 1777819509 | 11.11° C | 53% | 1013.5 hPa | 0 mm | - | 759 W/m² | - |
| 1777819206 | 11.11° C | 54% | 1013.5 hPa | 0 mm | - | 734 W/m² | - |
| 1777818903 | 11.11° C | 53% | 1013.5 hPa | 0 mm | - | 721 W/m² | - |
| 1777818599 | 10.56° C | 56% | 1013.7 hPa | 0 mm | - | 710 W/m² | - |
| 1777818296 | 10.56° C | 58% | 1013.5 hPa | 0 mm | - | 701 W/m² | - |
| 1777817992 | 10.56° C | 55% | 1013.5 hPa | 0 mm | - | 694 W/m² | - |
| 1777817690 | 10.56° C | 56% | 1013.8 hPa | 0 mm | - | 670 W/m² | - |
| 1777817387 | 10.56° C | 57% | 1013.7 hPa | 0 mm | - | 655 W/m² | - |
| 1777817083 | 10.56° C | 58% | 1013.7 hPa | 0 mm | - | 636 W/m² | - |
| 1777816779 | 10° C | 60% | 1013.7 hPa | 0 mm | - | 617 W/m² | - |
| 1777816477 | 8.89° C | 62% | 1013.7 hPa | 0 mm | - | 595 W/m² | - |
| 1777816175 | 8.89° C | 59% | 1013.9 hPa | 0 mm | - | 352 W/m² | - |
| 1777815872 | 9.44° C | 57% | 1013.8 hPa | 0 mm | - | 467 W/m² | - |
| 1777815570 | 8.89° C | 61% | 1013.8 hPa | 0 mm | - | 589 W/m² | - |
| 1777815267 | 8.89° C | 61% | 1013.5 hPa | 0 mm | - | 547 W/m² | - |
| 1777814963 | 9.44° C | 63% | 1013.9 hPa | 0 mm | - | 504 W/m² | - |
| 1777814660 | 8.89° C | 65% | 1013.9 hPa | 0 mm | - | 450 W/m² | - |
| 1777814356 | 8.33° C | 67% | 1014 hPa | 0 mm | - | 420 W/m² | - |
| 1777814053 | 7.78° C | 67% | 1013.8 hPa | 0 mm | - | 406 W/m² | - |
| 1777813750 | 7.78° C | 66% | 1013.9 hPa | 0 mm | - | 214 W/m² | - |
| 1777813448 | 7.78° C | 66% | 1013.9 hPa | 0 mm | - | 405 W/m² | - |
| 1777813145 | 7.78° C | 67% | 1013.9 hPa | 0 mm | - | 336 W/m² | - |
| 1777812843 | 7.78° C | 70% | 1013.9 hPa | 0 mm | - | 311 W/m² | - |
| 1777812539 | 6.67° C | 69% | 1014 hPa | 0 mm | - | 292 W/m² | - |
* Rain latest hour (hover to see other rain measurements)
** Current wind speed in m/s (hover to see current wind gust speed)